VA7GJ-2 Weather Reports


time (UTC)temp
C
wind
direction
speed
KPH
gust
KPH
rain 1hr
cm
rain 24hr
cm
rain mn
cm
humidity
%
barometer
mb
20220124112231 2 90 0.0 0.0 0.00 0.00 0.00 99 1015.2
20220124111231 2 255 0.0 0.0 0.00 0.00 0.00 99 1015.6
20220124110231 2 90 0.0 0.0 0.00 0.00 0.00 99 1015.5
20220124105231 2 45 0.0 0.0 0.00 0.00 0.00 99 1015.5
20220124104231 2 83 0.0 0.0 0.00 0.00 0.00 99 1015.5
20220124103231 2 97 0.0 0.0 0.00 0.00 0.00 99 1015.3
20220124102231 2 81 0.0 0.0 0.00 0.00 0.00 99 1015.3
20220124101231 2 31 0.0 0.0 0.00 0.00 0.00 99 1015.4
20220124100231 2 64 0.0 0.0 0.00 0.00 0.00 99 1015.4
20220124095231 2 153 0.0 0.0 0.00 0.00 0.00 99 1015.5
20220124094231 2 248 0.0 0.0 0.00 0.00 0.00 99 1015.2
20220124093231 2 70 0.0 0.0 0.00 0.00 0.00 99 1015.1
20220124092231 2 41 0.0 0.0 0.00 0.00 0.00 99 1015.1
20220124091231 2 52 0.0 0.0 0.00 0.00 0.00 99 1015.9
20220124090231 2 135 0.0 0.0 0.00 0.00 0.00 99 1015.9
20220124085231 2 338 0.0 0.0 0.00 0.00 0.00 99 1015.8
20220124084231 3 45 0.0 0.0 0.00 0.00 0.00 99 1015.8
20220124083231 3 225 0.0 0.0 0.00 0.00 0.00 99 1015.7
20220124082231 3 45 0.0 0.0 0.00 0.00 0.00 99 1015.8
20220124081201 3 45 0.0 0.0 0.00 0.00 0.00 99 1015.8
20220124080201 3 8 0.0 0.0 0.00 0.00 0.00 99 1015.9
20220124075201 3 270 0.0 0.0 0.00 0.00 0.00 99 1016.0
20220124074201 3 270 0.0 0.0 0.00 0.00 0.00 99 1016.0
20220124073201 3 270 0.0 0.0 0.00 0.00 0.00 99 1016.0
20220124072201 3 270 0.0 0.0 0.00 0.00 0.00 99 1015.9
20220124071201 3 270 0.0 0.0 0.00 0.00 0.00 99 1015.9
20220124070201 3 270 0.0 0.0 0.00 0.00 0.00 99 1016.0
20220124065200 3 270 0.0 0.0 0.00 0.00 0.00 99 1016.0
20220124064200 3 270 0.0 0.0 0.00 0.00 0.00 99 1015.9
20220124063200 3 270 0.0 0.0 0.00 0.00 0.00 99 1015.9
20220124062200 3 270 0.0 0.0 0.00 0.00 0.00 99 1016.0
20220124061200 3 270 0.0 0.0 0.00 0.00 0.00 99 1016.0
20220124060200 3 270 0.0 0.0 0.00 0.00 0.00 99 1016.1
20220124055200 3 270 0.0 0.0 0.00 0.00 0.00 99 1016.1
20220124054200 3 270 0.0 0.0 0.00 0.00 0.00 99 1015.9
20220124053200 3 270 0.0 0.0 0.00 0.00 0.00 99 1016.2
20220124052200 3 270 0.0 0.0 0.00 0.00 0.00 99 1016.1
20220124051200 3 270 0.0 0.0 0.00 0.00 0.00 99 1016.1
20220124050200 3 270 0.0 0.0 0.00 0.00 0.00 99 1016.2
20220124045200 3 270 0.0 0.0 0.00 0.00 0.00 99 1016.2
20220124044200 3 270 0.0 0.0 0.00 0.00 0.00 99 1016.3
20220124043200 3 270 0.0 0.0 0.00 0.00 0.00 99 1016.1
20220124042200 3 270 0.0 0.0 0.00 0.00 0.00 99 1016.1
20220124041200 3 270 0.0 0.0 0.00 0.00 0.00 99 1016.2
20220124040200 3 270 0.0 0.0 0.00 0.00 0.00 99 1016.2
20220124035200 3 270 0.0 0.0 0.00 0.00 0.00 99 1016.2
20220124034200 3 270 0.0 0.0 0.00 0.00 0.00 99 1016.3
20220124033200 3 270 0.0 0.0 0.00 0.00 0.00 99 1016.4
20220124032200 3 270 0.0 0.0 0.00 0.00 0.00 99 1016.2
20220124031200 3 270 0.0 0.0 0.00 0.00 0.00 99 1016.3
20220124030159 3 270 0.0 0.0 0.00 0.00 0.00 99 1016.3
20220124025159 3 270 0.0 0.0 0.00 0.00 0.00 99 1016.3
20220124024159 3 270 0.0 0.0 0.00 0.00 0.00 99 1016.4
20220124023159 3 270 0.0 0.0 0.00 0.00 0.00 99 1016.3
20220124022159 3 270 0.0 0.0 0.00 0.00 0.00 99 1016.4
20220124021159 3 270 0.0 0.0 0.00 0.00 0.00 99 1016.6
20220124020159 3 270 0.0 0.0 0.00 0.00 0.00 99 1016.7
20220124015159 3 270 0.0 0.0 0.00 0.00 0.00 99 1016.8
20220124014159 3 270 0.0 0.0 0.00 0.00 0.00 99 1017.0
20220124013159 3 270 0.0 0.0 0.00 0.00 0.00 99 1017.0
20220124012159 3 270 0.0 0.0 0.00 0.00 0.00 99 1016.9
20220124011159 3 270 0.0 0.0 0.00 0.00 0.00 99 1016.9
20220124010159 3 270 0.0 0.0 0.00 0.00 0.00 99 1017.0
20220124005129 3 229 0.0 0.0 0.00 0.00 0.00 99 1017.1
20220124004129 3 212 0.0 0.0 0.00 0.00 0.00 99 1017.4
20220124003129 3 248 0.0 0.0 0.00 0.00 0.00 99 1016.9
20220124002129 3 225 0.0 0.0 0.00 0.00 0.00 99 1017.0
20220124001129 3 226 0.0 0.0 0.00 0.00 0.00 99 1017.0
20220124000129 3 292 0.0 0.0 0.00 0.00 0.00 99 1017.0
20220123235129 3 292 0.0 0.0 0.00 0.00 0.00 99 1017.0
20220123234128 3 292 0.0 0.0 0.00 0.00 0.00 99 1017.2
20220123233128 3 292 0.0 0.0 0.00 0.00 0.00 99 1017.0
20220123232128 3 292 0.0 0.0 0.00 0.00 0.00 99 1017.2
20220123231128 3 292 1.6 3.2 0.00 0.00 0.00 99 1017.3
20220123230128 3 208 1.6 1.6 0.00 0.00 0.00 99 1017.3
20220123225128 3 218 0.0 0.0 0.00 0.00 0.00 99 1017.3
20220123224128 3 0 0.0 0.0 0.00 0.00 0.00 99 1017.5
20220123223128 3 246 0.0 0.0 0.00 0.00 0.00 99 1017.3
20220123222128 3 338 0.0 0.0 0.00 0.00 0.00 99 1017.2
20220123221128 3 199 0.0 0.0 0.00 0.00 0.00 99 1017.1
20220123220128 3 23 0.0 0.0 0.00 0.00 0.00 99 1017.2
20220123215128 3 0 0.0 0.0 0.00 0.00 0.00 99 1017.4
20220123214128 3 62 0.0 0.0 0.00 0.00 0.00 99 1017.3
20220123213128 3 57 0.0 0.0 0.00 0.00 0.00 99 1017.4
20220123212128 3 261 0.0 0.0 0.00 0.00 0.00 99 1017.8
20220123211128 3 261 0.0 0.0 0.00 0.00 0.00 99 1018.2
20220123210128 3 270 0.0 0.0 0.00 0.00 0.00 99 1018.1
20220123205128 3 270 0.0 0.0 0.00 0.00 0.00 99 1018.1
20220123204128 3 0 0.0 0.0 0.00 0.00 0.00 99 1018.1
20220123203128 3 353 0.0 0.0 0.00 0.00 0.00 99 1018.1
20220123202128 2 212 0.0 0.0 0.00 0.00 0.00 99 1018.1
20220123201128 3 270 0.0 0.0 0.00 0.00 0.00 99 1018.5
20220123200128 3 22 0.0 0.0 0.00 0.00 0.00 99 1018.7
20220123195128 3 270 0.0 0.0 0.00 0.00 0.00 99 1018.7
20220123194127 2 270 0.0 0.0 0.00 0.00 0.00 99 1018.9
20220123193127 2 270 0.0 0.0 0.00 0.00 0.00 99 1018.9
20220123192127 2 270 0.0 0.0 0.00 0.00 0.00 99 1019.1
20220123191127 2 270 0.0 0.0 0.00 0.00 0.00 99 1019.3
20220123190127 2 270 0.0 0.0 0.00 0.00 0.00 99 1019.4
20220123185127 2 270 0.0 0.0 0.00 0.00 0.00 99 1019.4
20220123184127 2 266 1.6 3.2 0.00 0.00 0.00 99 1019.4
20220123183127 2 248 1.6 3.2 0.00 0.00 0.00 99 1019.5
20220123182127 2 248 0.0 0.0 0.00 0.00 0.00 99 1019.4
20220123181127 2 248 0.0 0.0 0.00 0.00 0.00 99 1019.5
20220123180127 2 270 0.0 0.0 0.00 0.00 0.00 99 1019.5
20220123175127 2 270 0.0 0.0 0.00 0.00 0.00 99 1019.5
20220123174127 2 270 1.6 3.2 0.00 0.00 0.00 99 1019.5
20220123173127 2 270 0.0 0.0 0.00 0.00 0.00 99 1019.6
20220123172127 2 270 0.0 1.6 0.00 0.00 0.00 99 1019.6
20220123171127 1 270 0.0 0.0 0.00 0.00 0.00 99 1019.5
20220123170127 1 270 1.6 4.8 0.00 0.00 0.00 99 1019.6
20220123165127 1 270 0.0 0.0 0.00 0.00 0.00 99 1019.6
20220123164127 1 270 0.0 0.0 0.00 0.00 0.00 99 1019.5
20220123163127 1 270 0.0 0.0 0.00 0.00 0.00 99 1019.5
20220123162127 1 270 0.0 0.0 0.00 0.00 0.00 99 1019.4
20220123161127 1 270 0.0 0.0 0.00 0.00 0.00 99 1019.5
20220123160127 1 270 0.0 0.0 0.00 0.00 0.00 99 1019.5
20220123155127 1 270 0.0 0.0 0.00 0.00 0.00 99 1019.5
20220123154127 1 270 0.0 0.0 0.00 0.00 0.00 99 1019.4
20220123153127 1 237 0.0 3.2 0.00 0.00 0.00 99 1019.5
20220123152127 1 248 0.0 1.6 0.00 0.00 0.00 99 1019.5
20220123151126 1 41 0.0 1.6 0.00 0.00 0.00 99 1019.5
20220123150126 1 248 0.0 0.0 0.00 0.00 0.00 99 1019.6
20220123145126 1 52 0.0 0.0 0.00 0.00 0.00 99 1019.6
20220123144126 1 248 0.0 0.0 0.00 0.00 0.00 99 1019.5
20220123143126 1 208 0.0 0.0 0.00 0.00 0.00 99 1019.5
20220123142126 1 247 1.6 3.2 0.00 0.00 0.00 99 1019.4
20220123141126 1 292 0.0 0.0 0.00 0.00 0.00 99 1019.4
20220123140126 1 292 0.0 0.0 0.00 0.00 0.00 99 1019.5
20220123135126 1 292 0.0 0.0 0.00 0.00 0.00 99 1019.5
20220123134126 1 292 0.0 0.0 0.00 0.00 0.00 99 1019.6
20220123133126 1 22 0.0 0.0 0.00 0.00 0.00 99 1019.6
20220123132126 1 22 0.0 0.0 0.00 0.00 0.00 99 1019.6
20220123131126 1 22 0.0 0.0 0.00 0.00 0.00 99 1019.5
20220123130126 1 22 0.0 0.0 0.00 0.00 0.00 99 1019.7
20220123125126 1 225 0.0 0.0 0.00 0.00 0.00 99 1019.7
20220123124126 1 225 0.0 0.0 0.00 0.00 0.00 99 1019.7
20220123123126 1 212 0.0 0.0 0.00 0.00 0.00 99 1019.8
20220123122126 1 248 0.0 0.0 0.00 0.00 0.00 99 1019.9
20220123121126 0 270 0.0 0.0 0.00 0.00 0.00 99 1020.0
20220123120126 0 270 0.0 0.0 0.00 0.00 0.00 99 1020.0
20220123115126 0 270 0.0 0.0 0.00 0.00 0.00 99 1020.0
20220123114126 0 270 0.0 0.0 0.00 0.00 0.00 99 1020.1
20220123113125 0 270 0.0 0.0 0.00 0.00 0.00 99 1020.1